Flag for Switzerland Weather past 2 weeks in Solothurn, Solothurn, Switzerland

Now
62 °F

Refreshingly cool.


Feels Like: 62 °F
Forecast: 37 / 70 °F
Wind: 5 mph from East

Location: Grenchen

Current Time: May 27, 2015 at 7:05:39 PM

Latest Report: May 27, 2015 at 6:00 PM


Visibility: N/A

Pressure: 30.16 "Hg

Humidity: 46%

Dew point: 41 °F

Location of SolothurnLocation

Historic Weather in Solothurn — Graph

°F

Solothurn temperature yesterday

Maximum temperature yesterday: 58 °F (at 1:00 PM)
Minimum temperature yesterday: 51 °F (at 2:00 AM)
Average temperature yesterday: 53 °F

Past Weeks' High & Low Weather Summary

 TemperatureHumidityPressure
High83 °F (May 13, 5:00 PM)100% (May 22, 1:00 AM)30.36 "Hg (May 22, 1:00 AM)
Low38 °F (May 22, 5:00 AM)30% (May 13, 4:00 PM)29.73 "Hg (May 18, 8:00 PM)
Average56 °F72%30.07 "Hg
* Reported May 12 9:00 PM — May 27 5:00 PM, Solothurn, Weather by CustomWeather, © 2015

Note: Actual official high and low records may vary slightly from our data, if they occured in-between our weather recording intervals... More about our weather records

Advertising

Solothurn weather history for previous 24 hours

 ConditionsComfort  
Time TempWeatherWind HumidityBarometerVisibility
5:00 PM
Wed, May 27
62 °FMild.5 mph45%30.17 "HgN/A
4:00 PM61 °FRefreshingly cool.2 mph44%30.19 "HgN/A
3:00 PM61 °FRefreshingly cool.6 mph45%30.19 "HgN/A
2:00 PM60 °FRefreshingly cool.8 mph49%30.22 "HgN/A
1:00 PM60 °FRefreshingly cool.9 mph52%30.22 "HgN/A
12:00 PM58 °FRefreshingly cool.7 mph55%30.23 "HgN/A
10:00 AM55 °FCool.6 mph62%30.25 "HgN/A
9:00 AM52 °FCool.5 mph72%30.26 "HgN/A
8:00 AM47 °FCool.2 mph83%30.27 "HgN/A
7:00 AM41 °FQuite cool.No wind98%30.29 "HgN/A
6:00 AM39 °FChilly.1 mph99%30.29 "HgN/A
5:00 AM40 °FQuite cool.1 mph96%30.28 "HgN/A
4:00 AM43 °FQuite cool.3 mph91%30.27 "HgN/A
3:00 AM47 °FCool.2 mph72%30.24 "HgN/A
2:00 AM51 °FCool.7 mph60%30.22 "HgN/A
9:40 PM
Tue, May 26
53 °FCool.3 mph90%30.19 "HgN/A
9:00 PM53 °FCool.2 mph93%30.16 "HgN/A
8:00 PM53 °FCool.2 mph87%30.15 "HgN/A
7:00 PM54 °FCool.No wind83%30.14 "HgN/A
Weather by CustomWeather, © 2015

See weather overviewHow to use our weather pages